timestamp,surface_pressure_avg,surface_temp_avg,battery_voltage,lat,long
2022-05-03 00:09:01+00:00,348.0479,4.48,11.93,47.84626,-54.09684
2022-05-03 14:19:01+00:00,308.003,4.2,11.86,47.84626,-54.09684
2022-05-03 14:29:01+00:00,305.1464,4.2,11.86,47.84626,-54.09684
2022-05-03 14:39:01+00:00,301.8797,4.1,11.86,47.84626,-54.09684
2022-05-03 14:49:01+00:00,299.5147,4.1,11.86,47.84626,-54.09684
2022-05-03 14:59:01+00:00,300.5646,4.1,11.86,47.84626,-54.09684
2022-05-03 15:09:01+00:00,298.933,4.08,11.86,47.84626,-54.09684
2022-05-03 15:19:00+00:00,295.2963,4.0,11.86,47.84626,-54.09684
2022-05-03 15:29:00+00:00,289.5714,3.9,11.86,47.84626,-54.09684
2022-05-03 15:39:00+00:00,285.303,3.9,11.86,47.84626,-54.09684
2022-05-03 15:49:00+00:00,278.3763,3.8,11.86,47.84626,-54.09684
2022-05-03 15:59:00+00:00,271.2448,5.29,11.86,47.84626,-54.09684
2022-05-03 16:09:00+00:00,263.3798,5.0,11.86,47.84626,-54.09684
2022-05-03 16:19:00+00:00,257.2598,4.0,11.77,47.84626,-54.09684
2022-05-03 16:29:00+00:00,249.3114,3.9,11.77,47.84626,-54.09684
2022-05-03 16:39:00+00:00,241.9681,4.39,11.77,47.84626,-54.09684
2022-05-03 16:49:00+00:00,235.5864,4.9,11.77,47.84626,-54.09684
2022-05-03 16:59:00+00:00,229.1447,4.7,11.77,47.84626,-54.09684
2022-05-03 17:09:00+00:00,221.7364,4.7,11.77,47.84626,-54.09684
2022-05-03 17:19:01+00:00,215.8548,4.8,11.77,47.84626,-54.09684
2022-05-03 17:29:01+00:00,211.8731,4.9,11.77,47.84626,-54.09684
2022-05-03 17:39:01+00:00,206.4531,5.04,11.77,47.84626,-54.09684
2022-05-03 17:49:01+00:00,199.5164,5.1,11.77,47.84626,-54.09684
2022-05-03 17:59:01+00:00,192.3931,5.37,11.77,47.84626,-54.09684
2022-05-03 18:09:01+00:00,188.1465,5.6,11.77,47.84626,-54.09684
2022-05-03 18:19:01+00:00,186.4715,5.5,11.86,47.84626,-54.09684
2022-05-03 18:29:01+00:00,184.3315,5.4,11.86,47.84626,-54.09684
2022-05-03 18:39:01+00:00,181.1365,5.3,11.86,47.84626,-54.09684
2022-05-03 18:49:01+00:00,179.3865,5.3,11.86,47.84626,-54.09684
2022-05-03 18:59:01+00:00,179.3148,5.2,11.86,47.84626,-54.09684
2022-05-03 19:09:01+00:00,178.8181,5.15,11.86,47.84626,-54.09684
2022-05-03 20:19:01+00:00,199.8148,5.4,11.86,47.84626,-54.09684
2022-05-03 20:29:01+00:00,206.7148,4.82,11.86,47.84626,-54.09684
2022-05-03 20:39:01+00:00,212.8031,4.5,11.86,47.84626,-54.09684
2022-05-03 20:49:01+00:00,218.0198,4.4,11.86,47.84626,-54.09684
2022-05-03 20:59:01+00:00,223.4498,4.3,11.86,47.84626,-54.09684
2022-05-03 21:09:01+00:00,229.4998,4.2,11.86,47.84626,-54.09684
2022-05-03 21:19:01+00:00,234.0098,4.1,11.86,47.84626,-54.09684
2022-05-03 21:29:01+00:00,236.8381,4.1,11.86,47.84626,-54.09684
2022-05-03 21:39:01+00:00,242.5498,4.1,11.86,47.84626,-54.09684
2022-05-03 21:49:01+00:00,247.9598,4.4,11.86,47.84626,-54.09684
2022-05-03 21:59:01+00:00,251.8648,4.2,11.86,47.84626,-54.09684
2022-05-03 22:09:01+00:00,253.8497,4.0,11.86,47.84626,-54.09684
2022-05-03 22:19:01+00:00,259.4598,4.0,11.77,47.84626,-54.09684
2022-05-03 22:29:01+00:00,263.4748,4.0,11.77,47.84626,-54.09684
2022-05-03 22:39:01+00:00,268.7931,4.0,11.77,47.84626,-54.09684
2022-05-03 22:49:01+00:00,276.348,4.83,11.77,47.84626,-54.09684
2022-05-03 22:59:01+00:00,284.2364,4.02,11.77,47.84626,-54.09684
2022-05-03 23:09:01+00:00,286.1364,4.16,11.77,47.84626,-54.09684
2022-05-03 23:19:01+00:00,290.0997,4.36,11.77,47.84626,-54.09684
2022-05-03 23:29:01+00:00,297.7013,4.34,11.77,47.84626,-54.09684
2022-05-03 23:39:01+00:00,306.2679,4.5,11.77,47.84626,-54.09684
2022-05-03 23:49:01+00:00,311.4963,4.5,11.77,47.84626,-54.09684
2022-05-03 23:59:01+00:00,315.5897,4.25,11.77,47.84626,-54.09684
